Location: Parkway Village
(35.0643°N, 89.9062°W)
Time: 15:36:43
(UTC+00:00)

BlueWalker 3 - Pass Details

Date: 23 August 2024
Orbit: 475 x 487 km, 53.2° (Epoch: 17 September)

Event Time Altitude Azimuth Distance (km) Brightness Sun altitude
Exits shadow 09:11:54 18° 345° (NNW) 1,242 4.1 -25.6°
Maximum altitude 09:14:03 32° 38° (NE) 854 3.6 -25.2°
Drops below altitude 10° 09:17:29 10° 103° (ESE) 1,675 5.1 -24.6°
Sets 09:19:48 0° 114° (ESE) 2,552 5.9 -24.3°
